Theta_e
325 331 336 337 339 342 344 344 342 341 342 343 344 346 349 348 353 357 355 352 353 347 339 336 326 329 340 341 340 330 332 329 326 326 328 329 328 327 329 329 329 329 329 329 328 327 326 325 326
326 332 332 336 340 347 345 342 343 342 342 344 345 345 348 351 353 353 351 349 352 350 343 337 332 324 338 341 341 332 332 335 330 326 326 328 330 328 327 328 328 327 327 327 326 326 326 325 325
327 330 332 336 338 342 344 342 340 339 340 342 343 345 346 349 352 353 350 351 348 351 349 338 336 328 333 341 342 337 332 337 337 330 327 327 327 327 327 327 327 327 327 327 327 326 326 326 326
332 332 333 336 339 340 338 340 337 340 340 340 344 343 346 347 351 351 348 347 345 351 350 344 338 332 326 337 341 341 337 338 340 335 330 327 327 326 327 327 327 327 328 328 328 329 328 328 328
329 330 333 334 338 337 339 338 338 341 339 338 343 347 347 349 352 350 351 347 349 355 351 345 337 336 328 328 338 340 339 339 340 337 333 329 327 327 327 327 327 327 326 327 328 329 329 330 329
329 330 331 332 337 336 334 337 337 337 335 337 342 343 337 344 350 351 351 347 346 349 346 335 330 331 335 326 324 330 335 335 336 334 333 329 328 328 328 327 326 325 325 325 326 328 329 328 329
328 330 330 329 333 334 334 333 338 337 333 334 344 344 334 334 351 353 349 348 347 347 351 333 329 327 334 333 325 323 326 329 330 330 329 329 329 329 327 326 324 324 325 325 326 327 328 329 329
326 327 327 329 330 332 332 333 335 335 335 333 330 339 332 338 349 347 347 348 347 346 351 349 334 330 336 336 333 327 324 324 325 326 327 328 325 324 326 326 327 328 328 328 329 329 330 330 331
325 326 327 331 332 332 331 331 333 332 333 332 330 341 341 345 344 345 346 343 348 346 348 352 351 335 340 338 337 334 331 326 325 325 325 326 328 331 340 341 337 340 336 332 331 331 331 331 332
326 327 328 330 331 331 330 329 330 330 331 329 329 342 343 341 342 338 340 348 347 346 345 345 351 350 350 348 341 339 338 336 335 332 332 332 344 346 346 347 344 337 340 340 340 337 334 333 334
327 327 329 328 327 328 328 327 327 328 328 328 326 330 336 339 339 341 339 341 344 344 339 343 349 349 350 350 346 343 342 350 347 347 350 347 348 352 349 348 349 348 347 344 343 346 343 343 341
326 327 326 326 325 325 326 326 326 325 325 326 329 330 332 333 334 332 334 336 331 339 339 328 348 348 350 345 328 348 348 350 351 349 348 344 334 343 348 345 343 344 340 344 346 334 326 339 337
326 326 325 324 324 324 324 325 326 325 325 326 328 329 330 331 331 330 331 342 343 344 347 351 350 350 352 350 349 347 344 337 339 337 328 336 337 334 340 337 338 335 336 335 337 339 340 338 341
326 325 325 324 324 324 325 325 325 326 325 326 326 327 327 328 330 331 331 346 351 349 350 349 349 352 352 351 349 344 340 335 331 331 328 319 322 323 321 326 328 327 327 328 330 329 329 331 334
325 324 325 325 324 324 324 325 326 326 326 327 327 327 328 332 333 332 331 339 345 347 347 344 343 343 344 343 341 335 334 330 328 324 317 316 316 316 315 326 326 328 328 322 328 330 332 331 328
325 326 326 326 325 324 324 325 327 326 326 327 327 328 330 332 333 332 331 332 338 343 344 341 339 338 337 336 334 331 330 329 328 327 324 319 319 318 313 320 321 318 312 322 325 327 327 329 331
326 326 327 327 326 326 325 327 328 327 327 328 328 329 330 331 332 332 332 332 335 339 340 338 336 336 334 331 331 329 328 328 327 326 325 324 324 323 318 325 320 315 316 320 319 316 313 312 314
328 328 328 328 327 326 326 329 329 327 327 328 328 329 330 330 331 331 331 333 333 334 334 334 334 332 326 328 323 327 327 324 326 325 324 323 326 325 319 325 326 321 322 325 321 317 316 316 319
327 327 327 326 327 327 326 325 329 328 327 327 327 328 328 328 329 330 331 332 333 333 332 332 332 331 327 330 328 329 328 327 325 325 325 325 326 326 325 323 325 325 325 324 321 321 320 319 319
325 325 326 326 327 326 326 325 326 328 327 327 327 327 326 326 326 326 327 327 329 330 330 329 330 330 328 331 330 329 327 327 328 328 328 327 326 327 326 326 325 322 322 322 321 323 323 322 320
326 327 327 326 326 326 326 326 326 329 327 327 325 325 324 324 324 324 323 323 323 323 324 324 324 324 326 324 323 324 328 326 328 327 328 328 329 328 328 326 324 320 318 317 319 326 324 322 321
325 324 325 325 324 323 325 325 327 330 328 327 325 325 324 324 324 323 322 322 321 321 320 320 320 320 320 320 321 322 320 321 321 323 323 324 323 325 324 324 322 317 318 319 322 323 323 323 322
324 322 321 321 321 322 322 322 324 330 329 328 326 325 325 324 322 321 321 321 320 320 319 319 319 319 318 318 318 318 319 321 320 320 320 320 319 319 319 319 316 321 322 322 323 321 324 323 322
324 322 323 323 323 324 325 324 326 329 328 326 326 325 324 323 322 321 320 320 319 318 317 318 317 317 317 316 316 315 315 316 318 320 321 319 317 317 319 320 319 318 321 322 323 321 321 323 323
324 323 323 327 327 326 324 324 325 327 326 324 323 322 322 322 320 319 320 319 317 317 316 315 316 315 314 314 314 314 314 315 314 315 317 318 318 317 317 317 318 320 319 320 321 322 320 322 322
321 321 321 326 326 323 323 323 328 326 323 323 322 321 321 320 320 320 319 318 316 316 315 315 315 314 314 313 314 314 313 313 314 314 315 316 316 318 317 316 315 314 314 315 317 320 319 318 321
322 322 321 321 322 324 323 327 325 324 324 322 321 321 320 321 320 319 318 317 315 315 314 313 313 312 312 312 313 313 313 314 314 312 313 314 314 316 315 314 314 314 312 313 315 317 316 318 319
320 321 321 328 326 323 321 322 325 324 323 322 320 319 319 320 319 318 316 316 314 314 312 311 311 311 312 312 313 314 314 313 314 313 312 312 311 311 311 311 312 311 311 310 313 315 316 319 319
324 324 322 324 323 325 325 323 324 323 322 321 320 319 319 319 317 316 314 313 312 311 310 311 312 312 312 311 311 311 311 311 311 311 310 309 308 309 308 308 308 308 309 309 311 312 312 312 314
319 319 321 326 325 325 325 325 324 323 321 320 319 318 317 315 314 314 313 312 311 310 312 311 311 311 311 310 309 309 310 309 309 308 308 307 308 308 308 307 307 307 309 309 310 309 311 312 313
Wind_Speed
12 8 12 9 7 1 16 9 5 10 5 14 17 14 21 20 13 7 13 13 11 5 10 8 7 8 9 15 14 12 11 10 9 10 9 8 7 7 7 7 7 7 7 7 8 8 9 9 10
11 7 14 12 11 5 5 11 11 2 15 13 10 18 18 16 18 19 16 10 14 8 8 9 7 8 9 13 13 12 11 10 8 9 8 7 5 5 5 4 4 5 5 5 5 6 6 7 7
10 5 11 7 5 3 4 11 14 16 23 11 13 19 11 12 13 11 16 12 14 10 9 8 9 9 10 11 13 12 12 10 7 7 8 7 6 4 3 2 1 1 2 2 3 4 5 6 6
7 12 13 10 3 8 6 3 4 27 14 12 18 14 22 13 12 14 13 11 10 15 8 1 6 9 11 11 11 11 11 10 8 7 7 7 6 5 4 2 2 2 2 3 4 4 5 6 6
14 15 13 10 10 10 10 22 13 24 10 12 7 20 25 21 10 13 12 8 1 13 3 4 6 8 11 13 12 12 12 11 10 9 9 8 7 6 5 4 5 5 6 6 7 7 7 7 7
16 23 16 12 13 22 2 15 4 29 25 19 23 29 17 10 1 6 10 9 9 7 2 3 6 8 9 10 12 12 12 11 11 10 9 9 8 7 7 7 7 8 9 9 10 10 10 10 10
16 14 18 21 9 8 16 7 21 13 21 14 18 12 16 9 11 8 8 9 9 10 6 5 6 8 9 9 9 10 10 10 11 10 9 9 8 8 9 9 9 10 12 12 13 13 13 13 13
20 15 22 16 6 10 11 2 16 12 7 2 13 11 7 16 12 10 10 9 7 8 5 5 7 10 11 10 9 9 10 11 10 10 10 10 10 9 8 10 10 11 13 14 15 15 15 16 16
14 12 14 15 13 7 6 2 8 7 13 8 8 20 20 14 9 11 8 9 10 10 8 8 7 9 9 10 11 10 10 10 11 11 11 10 8 6 4 6 7 9 14 17 17 17 17 17 18
12 12 14 3 15 8 10 11 15 11 16 19 19 22 20 10 6 5 7 14 10 9 7 2 14 6 11 7 7 8 9 7 6 8 7 5 2 2 10 15 16 9 11 14 15 18 16 17 20
13 9 9 9 13 13 14 4 16 19 13 12 9 14 8 8 2 10 10 24 11 7 11 15 11 16 13 12 7 6 5 1 2 1 6 3 4 8 12 14 16 13 13 16 17 14 16 22 18
15 6 13 12 10 8 4 12 18 10 10 8 12 7 6 8 4 9 9 5 12 16 14 6 7 11 6 11 5 12 7 6 4 9 12 6 3 8 8 8 10 17 18 19 21 19 17 19 25
13 6 5 4 0 7 8 11 14 8 8 9 8 5 10 16 19 19 26 14 13 7 6 10 20 11 8 8 16 15 13 8 13 8 10 13 11 14 14 12 12 10 10 12 14 20 17 15 22
11 2 4 3 9 2 4 3 3 6 3 6 5 6 10 11 17 20 25 21 13 11 1 4 7 6 7 10 10 14 14 16 11 15 16 14 12 11 10 2 6 6 11 14 14 13 17 18 19
6 7 8 6 4 4 7 8 6 2 2 4 5 7 9 16 18 20 19 18 13 10 1 9 10 5 2 7 2 5 5 5 11 15 12 11 11 9 5 6 6 13 12 6 9 10 9 12 14
12 13 13 14 7 8 2 4 12 2 1 4 5 7 12 16 16 16 16 14 15 12 15 11 2 9 4 6 4 4 9 5 7 4 8 7 7 7 7 8 11 8 7 4 8 12 12 11 11
10 11 11 10 12 10 8 6 9 3 3 4 4 7 10 13 15 16 16 15 12 8 5 8 6 3 7 6 2 8 8 5 7 5 6 9 5 6 4 6 6 4 5 6 9 11 13 16 15
11 6 13 12 13 6 8 9 13 7 2 4 5 6 8 10 13 14 15 16 14 13 11 9 7 10 6 6 6 3 8 8 6 4 9 7 3 6 4 1 10 8 4 10 12 16 15 15 15
12 13 12 12 8 1 8 15 11 14 3 7 4 6 6 7 8 10 12 13 13 13 13 10 9 8 6 8 8 9 7 10 7 9 13 7 6 7 10 6 8 3 7 10 18 22 21 18 13
13 15 13 12 3 4 7 16 10 14 9 2 2 7 5 7 8 8 9 11 12 12 11 10 11 13 6 8 5 9 11 10 6 1 4 10 13 10 8 11 12 12 14 18 16 22 24 24 15
12 14 11 13 16 12 10 16 14 15 12 10 5 5 5 3 5 6 8 8 11 11 10 11 12 13 12 17 12 12 13 15 16 15 13 9 13 10 10 13 24 28 30 29 25 17 24 27 25
10 13 14 13 12 12 16 13 8 18 12 11 10 7 3 2 3 6 8 8 8 9 10 9 9 10 13 20 20 16 18 17 17 19 22 23 27 16 21 27 25 29 29 26 27 25 20 23 22
12 14 13 13 12 13 15 10 6 16 12 14 14 9 4 2 7 11 13 12 12 14 15 17 15 13 18 17 22 23 23 22 23 21 23 23 27 22 25 25 23 24 27 27 22 25 25 22 24
9 12 15 14 11 11 17 14 3 6 6 6 11 7 3 3 10 12 17 10 18 21 23 14 19 20 18 23 22 25 23 24 25 25 27 30 29 24 20 16 19 22 24 26 26 26 28 26 27
5 10 8 4 8 9 7 2 7 12 12 13 10 11 9 10 17 20 17 23 23 23 22 23 21 26 25 24 22 24 24 23 29 29 28 28 29 26 24 23 22 20 18 20 24 27 28 27 26
10 4 6 7 8 13 18 7 6 15 11 7 8 11 11 17 17 21 24 24 20 20 26 27 25 25 27 25 24 23 28 30 26 25 27 29 29 27 28 30 36 38 32 27 28 29 30 33 33
11 4 7 5 10 10 11 10 10 7 3 2 9 8 16 15 19 22 25 29 30 21 21 23 33 31 30 30 31 28 27 24 22 25 27 30 32 31 35 34 31 33 35 35 32 34 38 37 37
5 7 4 5 3 7 10 12 7 5 11 12 15 17 21 17 22 26 29 26 33 31 30 23 24 26 25 26 24 24 25 25 23 24 28 33 37 40 43 44 47 48 47 44 38 35 34 33 35
6 7 6 0 4 6 9 5 10 7 10 11 14 19 17 19 21 24 26 29 22 18 24 24 25 27 29 30 33 33 32 32 30 30 33 36 37 35 38 37 36 31 31 36 40 38 38 42 40
7 10 9 3 7 9 9 10 4 3 8 16 17 19 26 28 30 31 30 26 28 28 24 28 31 30 29 32 35 35 30 31 37 38 35 36 32 32 34 36 32 29 29 28 28 35 37 36 37
Wind_Direction
317 327 348 296 257 67 341 128 142 75 24 37 50 53 74 48 39 97 128 125 136 132 146 137 144 152 161 164 163 162 159 151 149 142 143 136 122 109 104 98 92 87 78 70 61 55 53 51 50
325 290 279 274 254 59 267 42 164 123 189 122 84 73 72 62 86 117 123 117 128 113 138 137 138 147 160 173 169 167 172 161 161 158 154 152 148 134 120 104 90 79 70 57 46 42 38 39 38
319 321 285 248 265 320 66 40 34 267 305 26 98 61 32 109 77 106 127 118 120 130 161 146 152 155 162 177 176 174 182 180 170 174 173 173 173 168 145 136 123 78 56 29 12 8 6 8 10
308 271 262 249 39 140 121 123 190 221 13 359 120 88 80 77 87 115 125 131 131 160 176 159 170 166 168 172 184 186 190 193 190 194 196 193 193 190 196 218 255 285 305 310 312 319 328 333 338
273 275 267 287 19 312 165 187 229 76 140 358 100 67 48 46 82 124 131 133 306 128 109 225 187 180 178 178 182 192 199 204 208 208 208 208 208 210 223 248 271 282 289 293 292 294 299 303 309
285 265 280 282 174 236 206 188 73 63 44 353 63 74 5 24 192 141 137 139 137 119 235 165 176 181 189 182 186 193 204 210 217 220 217 215 222 233 250 262 275 282 286 289 287 287 287 291 294
263 280 290 299 139 175 61 36 87 87 67 307 128 124 172 207 153 150 153 151 154 149 193 146 161 167 177 179 183 191 198 208 216 219 219 225 233 247 261 271 278 284 283 284 285 285 285 287 289
255 282 283 282 29 92 67 70 102 102 151 178 15 126 168 165 145 160 176 151 157 155 161 142 154 163 170 172 174 182 186 194 202 214 217 228 239 251 268 278 283 286 284 284 285 284 286 288 288
272 272 280 357 56 70 77 357 78 31 103 46 67 90 113 135 159 173 169 120 214 187 159 170 168 146 159 176 177 181 185 197 201 208 219 228 248 259 285 293 292 310 306 297 290 285 284 286 287
244 267 292 15 20 72 100 14 33 11 58 50 56 115 123 125 173 213 200 156 165 210 201 226 174 165 166 191 184 187 189 194 209 220 224 232 166 338 295 295 299 313 310 304 300 306 299 295 298
240 279 41 39 8 3 55 66 44 20 42 38 16 46 106 146 203 177 26 60 57 275 300 32 158 183 167 181 210 181 115 51 36 196 277 201 261 258 255 272 289 296 296 310 302 288 291 282 272
269 32 3 49 21 335 6 77 71 35 43 31 49 17 29 19 41 57 60 188 312 302 268 154 207 187 201 209 165 216 189 167 225 230 233 230 227 276 244 267 277 302 300 307 282 310 323 289 308
268 99 318 49 336 3 38 74 96 69 42 39 54 33 16 9 3 9 25 26 96 120 36 46 155 180 192 132 167 177 190 162 209 230 226 217 211 229 240 250 265 263 284 313 331 326 339 289 319
3 353 202 162 133 241 199 81 59 89 60 79 26 25 19 6 15 1 7 34 66 90 314 264 54 223 246 213 202 219 194 197 194 205 232 221 220 243 230 246 281 287 267 267 283 309 307 313 318
281 265 216 203 179 220 280 174 178 129 106 64 27 33 32 32 17 4 1 23 34 30 126 331 345 293 192 301 242 122 237 211 210 237 239 241 247 259 222 222 238 246 266 293 321 307 313 320 292
259 232 234 151 162 141 205 296 101 125 62 79 48 38 49 45 25 14 11 16 19 24 9 359 22 355 296 221 165 199 223 202 214 238 263 245 274 256 233 227 246 280 291 282 280 282 288 294 311
209 253 230 156 184 152 179 141 114 136 88 57 43 54 53 43 35 28 24 33 42 37 11 22 16 296 316 320 226 232 238 188 229 210 251 259 227 257 171 292 296 325 326 321 291 322 324 319 316
335 281 271 154 166 168 251 161 146 133 140 117 66 63 54 46 41 33 32 31 35 35 34 21 4 337 336 328 313 255 270 248 242 237 242 266 196 293 229 147 316 310 337 300 312 321 327 323 326
323 310 316 314 119 153 284 290 147 129 216 151 110 85 81 72 55 38 31 27 28 35 31 33 18 355 22 346 303 306 282 272 257 241 249 242 234 233 273 257 238 290 308 299 322 320 323 320 328
317 302 292 288 218 165 287 276 241 148 175 122 130 121 85 68 60 35 31 25 26 19 18 358 355 338 325 304 291 325 305 287 302 232 248 258 298 291 276 263 278 297 305 303 305 304 306 304 316
316 343 304 335 337 316 256 250 256 151 141 137 134 111 125 78 4 7 3 22 8 4 358 350 352 346 355 330 320 293 278 273 281 274 272 248 235 228 253 292 301 300 303 301 295 290 296 299 297
303 11 335 315 302 287 303 297 279 147 159 163 161 176 123 58 331 330 331 337 338 326 322 336 335 340 336 327 323 321 315 308 302 295 293 281 290 293 288 287 278 294 295 291 281 267 280 285 277
311 335 302 291 284 287 283 268 259 142 173 180 184 187 203 246 319 322 307 306 309 306 307 308 305 315 313 298 310 306 300 295 284 277 274 280 278 285 283 277 286 284 280 277 278 275 264 265 268
304 288 293 270 258 262 262 230 109 133 176 100 147 172 171 287 297 297 298 310 309 310 311 314 323 316 309 313 309 302 297 299 297 293 288 282 289 292 285 279 279 273 279 269 262 264 264 260 265
273 333 316 290 236 237 50 319 308 96 65 49 26 7 3 328 306 306 314 316 324 325 322 319 304 307 303 303 295 291 294 295 295 296 294 289 284 282 283 271 269 263 278 282 265 259 254 251 256
295 336 291 320 315 326 335 304 81 77 80 60 3 348 313 293 312 314 311 316 317 312 311 307 310 306 304 305 301 290 294 295 291 292 289 286 284 281 273 273 271 273 277 281 275 268 262 255 247
9 305 31 327 282 274 275 76 94 89 101 293 351 339 317 3 353 335 323 314 310 319 323 320 322 306 294 301 297 293 294 292 287 287 285 284 280 277 274 270 270 270 268 271 270 268 265 259 251
276 342 273 197 286 300 316 325 64 40 9 348 335 322 312 350 332 323 315 313 316 303 311 314 305 316 320 320 314 312 306 299 293 284 283 285 290 285 279 276 276 275 274 274 266 264 266 262 255
191 228 216 359 308 293 294 298 71 22 345 332 324 334 341 323 311 301 315 322 332 332 327 325 329 323 319 314 307 307 303 291 284 288 290 289 295 287 282 282 283 283 279 271 266 263 267 267 261
299 290 325 298 278 289 320 291 80 312 297 349 344 343 334 328 324 319 324 336 342 339 345 337 330 323 316 308 307 306 300 298 294 297 292 290 285 283 285 289 284 278 276 273 272 266 264 268 262